Vagabond Aaf / Yakim, WA

2:32 AM PDT on September 24, 2017 (GMT -0700)
Vagabond Aaf / Yakim

Weather History for K1YT - June, 2014

Change the Weather History Date:

Saturday, June 7, 2014

  Actual Average (KYKM) Record (KYKM)
Temperature  
Mean Temperature 72 °F -  
Max Temperature 84 °F 77 °F 102 °F (2016)
Min Temperature 59 °F 49 °F 35 °F (2002)
Cooling Degree Days 6    
Growing Degree Days 22 (Base 50)    
Moisture  
Dew Point 39 °F    
Average Humidity 30    
Maximum Humidity 46    
Minimum Humidity 19    
Precipitation  
Precipitation 0.00 in - - ()
Sea Level Pressure  
Sea Level Pressure 30.04 in    
Wind  
Wind Speed 9 mph (North)    
Max Wind Speed 20 mph    
Max Gust Speed 25 mph    
Visibility 12 miles    
Events      
Averages and records for this station are not official NWS values.
T = Trace of Precipitation, MM = Missing Value Source: NWS Daily Summary

Daily Weather History Graph

Daily Weather History Graph

Search for Another Location

Airport or City:

Trip Planner

Search our weather history database for the weather conditions in past years. The results will help you decide how hot, cold, wet, or windy it might be!

Date:

Astronomy

Jun. 07, 2014 Rise Set
Actual Time 5:09 AM PDT 8:52 PM PDT
Civil Twilight 4:30 AM PDT 9:31 PM PDT
Nautical Twilight 3:38 AM PDT 10:24 PM PDT
Astronomical Twilight 2:24 AM PDT 11:37 PM PDT
Moon 2:56 PM PDT (6/7) 1:54 AM PDT (6/7)
Length of Visible Light 17h 01m
Length of Day
15h 43m
Waxing Gibbous, 69% of the Moon is Illuminated
Jun 7
Waxing Gibbous
Jun 12
Full
Jun 19
Last Quarter
Jun 27
New
Jul 5
First Quarter

Hourly Weather History & Observations

Time (PDT) Temp. Dew Point Humidity Pressure Visibility Wind Dir Wind Speed Gust Speed Precip Events Conditions
12:56 AM 64.0 °F 32.2 °F 30% 30.04 in 12.0 mi North 8.1 mph - N/A   Clear
2:56 AM 63.1 °F 37.8 °F 39% 30.04 in 12.0 mi North 12.7 mph 19.6 mph N/A   Clear
3:56 AM 60.4 °F 36.7 °F 41% 30.05 in 12.0 mi NE 5.8 mph - N/A   Clear
5:56 AM 59.7 °F 38.7 °F 46% 30.05 in 12.0 mi East 2.3 mph - N/A   Clear
7:56 AM 66.0 °F 39.0 °F 37% 30.07 in 12.0 mi East 6.9 mph - N/A   Clear
8:56 AM 67.8 °F 39.7 °F 36% 30.07 in 12.0 mi Variable 2.3 mph - N/A   Clear
10:56 AM 73.2 °F 38.5 °F 28% 30.05 in 12.0 mi Variable 4.6 mph - N/A   Clear
11:56 AM 76.3 °F 38.5 °F 26% 30.05 in 12.0 mi Variable 6.9 mph - N/A   Clear
12:56 PM 76.5 °F 37.0 °F 24% 30.03 in 12.0 mi Variable 2.3 mph - N/A   Clear
1:56 PM 80.1 °F 36.5 °F 21% 30.03 in 12.0 mi West 10.4 mph 13.8 mph N/A   Partly Cloudy
2:56 PM 82.8 °F 36.9 °F 19% 30.01 in 12.0 mi NE 9.2 mph 16.1 mph N/A   Partly Cloudy
3:51 PM 84.2 °F 37.4 °F 19% 30.01 in 12.0 mi NNW 12.7 mph 19.6 mph N/A   Partly Cloudy
3:56 PM 83.3 °F 38.1 °F 20% 30.00 in 12.0 mi NW 11.5 mph 18.4 mph N/A   Partly Cloudy
4:30 PM 82.4 °F 37.4 °F 20% 30.01 in 12.0 mi NW 15.0 mph 19.6 mph N/A   Clear
4:56 PM 83.5 °F 37.0 °F 19% 30.00 in 12.0 mi NNW 13.8 mph 18.4 mph N/A   Clear
5:56 PM 79.9 °F 39.9 °F 24% 30.01 in 12.0 mi NNW 16.1 mph 25.3 mph N/A   Clear
6:56 PM 77.0 °F 41.9 °F 28% 30.02 in 12.0 mi NNW 18.4 mph 23.0 mph N/A   Clear
8:56 PM 69.4 °F 41.7 °F 37% 30.05 in 12.0 mi North 15.0 mph 24.2 mph N/A   Clear
9:56 PM 66.9 °F 43.3 °F 42% 30.08 in 12.0 mi NNE 6.9 mph - N/A   Clear
10:56 PM 66.2 °F 42.6 °F 42% 30.08 in 12.0 mi NNE 9.2 mph - N/A   Clear
11:56 PM 65.7 °F 40.8 °F 40% 30.08 in 12.0 mi North 19.6 mph 25.3 mph N/A   Clear